When you browse on this site, cookies collect data to enhance your experience and personalize the content and advertising you see.
Visit our Privacy Policy to learn more. By continuing to use the site, you agree to this use of cookies and data.
  • In Hungary
  • List of Countries
  • For 7 days
  • Water Temperature
  • Satellite Maps
  • Weather Map
  • News
  • Weather Widgets
  • user-avatar
    Login

    Hourly Weather Nagpur

    Today, 24 July, Wednesday

    Time Temperature Precipitation Wind Pressure Humidity
    00:00 +33°C° 0.2 mm 3 mps 726 mmHg 62%
    01:00 +33°C° 0.2 mm 4 mps 725 mmHg 65%
    02:00 +32°C° 0.2 mm 4 mps 725 mmHg 68%
    03:00 +31°C° 0 mm 3 mps 725 mmHg 70%
    04:00 +30°C° 0 mm 2 mps 725 mmHg 72%
    05:00 +30°C° 0 mm 2 mps 725 mmHg 74%
    06:00 +31°C° 0 mm 2 mps 725 mmHg 69%
    07:00 +33°C° 0 mm 3 mps 726 mmHg 65%
    08:00 +34°C° 0 mm 3 mps 726 mmHg 60%
    09:00 +36°C° 0 mm 3 mps 726 mmHg 56%
    10:00 +37°C° 0 mm 3 mps 726 mmHg 51%
    11:00 +38°C° 0 mm 3 mps 726 mmHg 46%
    12:00 +39°C° 0 mm 3 mps 725 mmHg 43%
    13:00 +39°C° 0 mm 3 mps 725 mmHg 41%
    14:00 +40°C° 0 mm 3 mps 724 mmHg 38%
    15:00 +39°C° 0 mm 3 mps 724 mmHg 40%
    16:00 +39°C° 0 mm 3 mps 724 mmHg 42%
    17:00 +38°C° 0 mm 3 mps 723 mmHg 44%
    18:00 +38°C° 0 mm 3 mps 724 mmHg 46%
    19:00 +37°C° 0 mm 3 mps 724 mmHg 49%
    20:00 +36°C° 0 mm 3 mps 725 mmHg 51%
    21:00 +35°C° 0 mm 3 mps 725 mmHg 54%
    22:00 +35°C° 0 mm 3 mps 725 mmHg 57%
    23:00 +34°C° 0 mm 3 mps 725 mmHg 60%

    Tomorrow, 25 July, Thursday

    Time Temperature Precipitation Wind Pressure Humidity
    00:00 +34°C° 0.1 mm 3 mps 725 mmHg 61%
    01:00 +33°C° 0.1 mm 3 mps 725 mmHg 63%
    02:00 +33°C° 0.1 mm 3 mps 724 mmHg 65%
    03:00 +33°C° 0.2 mm 3 mps 725 mmHg 66%
    04:00 +32°C° 0.2 mm 4 mps 725 mmHg 68%
    05:00 +32°C° 0.2 mm 4 mps 725 mmHg 69%
    06:00 +32°C° 0.4 mm 4 mps 725 mmHg 69%
    07:00 +32°C° 0.4 mm 5 mps 726 mmHg 70%
    08:00 +32°C° 0.4 mm 6 mps 726 mmHg 70%
    09:00 +32°C° 0.1 mm 5 mps 726 mmHg 70%
    10:00 +32°C° 0.1 mm 4 mps 726 mmHg 69%
    11:00 +32°C° 0.1 mm 4 mps 726 mmHg 69%
    12:00 +32°C° 0.7 mm 4 mps 726 mmHg 68%
    13:00 +32°C° 0.7 mm 4 mps 725 mmHg 68%
    14:00 +32°C° 0.7 mm 4 mps 725 mmHg 68%
    15:00 +32°C° 0.3 mm 4 mps 725 mmHg 68%
    16:00 +33°C° 0.3 mm 3 mps 724 mmHg 68%
    17:00 +32°C° 0.3 mm 2 mps 724 mmHg 67%
    18:00 +31°C° 0 mm 2 mps 725 mmHg 69%
    19:00 +31°C° 0 mm 2 mps 725 mmHg 70%
    20:00 +30°C° 0 mm 2 mps 725 mmHg 71%
    21:00 +30°C° 0.7 mm 2 mps 726 mmHg 72%
    22:00 +30°C° 0.7 mm 3 mps 726 mmHg 73%
    23:00 +30°C° 0.7 mm 3 mps 726 mmHg 74%

    Day after tomorrow, 26 July, Friday

    Time Temperature Precipitation Wind Pressure Humidity
    00:00 +29°C° 1.3 mm 3 mps 725 mmHg 75%
    01:00 +29°C° 1.3 mm 4 mps 725 mmHg 77%
    02:00 +29°C° 1.3 mm 4 mps 724 mmHg 78%
    03:00 +28°C° 1.4 mm 4 mps 724 mmHg 80%
    04:00 +28°C° 1.4 mm 4 mps 724 mmHg 82%
    05:00 +27°C° 1.4 mm 4 mps 724 mmHg 85%
    06:00 +28°C° 0.6 mm 4 mps 725 mmHg 83%
    07:00 +28°C° 0.6 mm 4 mps 725 mmHg 82%
    08:00 +28°C° 0.6 mm 4 mps 726 mmHg 81%
    09:00 +28°C° 1.1 mm 5 mps 726 mmHg 81%
    10:00 +28°C° 1.1 mm 5 mps 726 mmHg 81%
    11:00 +28°C° 1.1 mm 5 mps 726 mmHg 80%
    12:00 +29°C° 0.5 mm 5 mps 725 mmHg 79%
    13:00 +29°C° 0.5 mm 5 mps 725 mmHg 77%
    14:00 +29°C° 0.5 mm 5 mps 724 mmHg 76%
    15:00 +29°C° 0.1 mm 5 mps 724 mmHg 76%
    16:00 +29°C° 0.1 mm 5 mps 724 mmHg 76%
    17:00 +29°C° 0.1 mm 4 mps 723 mmHg 76%
    18:00 +29°C° 0 mm 4 mps 724 mmHg 78%
    19:00 +28°C° 0 mm 4 mps 724 mmHg 80%
    20:00 +28°C° 0 mm 4 mps 725 mmHg 83%
    21:00 +27°C° 0.2 mm 4 mps 725 mmHg 83%
    22:00 +27°C° 0.2 mm 5 mps 725 mmHg 84%
    23:00 +27°C° 0.2 mm 5 mps 725 mmHg 85%

    27 July, Saturday

    Time Temperature Precipitation Wind Pressure Humidity
    00:00 +27°C° 0.3 mm 5 mps 724 mmHg 85%
    01:00 +27°C° 0.3 mm 5 mps 724 mmHg 85%
    02:00 +27°C° 0.3 mm 5 mps 723 mmHg 85%
    03:00 +27°C° 0.6 mm 5 mps 723 mmHg 86%
    04:00 +27°C° 0.6 mm 5 mps 723 mmHg 88%
    05:00 +27°C° 0.6 mm 5 mps 722 mmHg 89%
    06:00 +27°C° 1.2 mm 4 mps 723 mmHg 89%
    07:00 +27°C° 1.2 mm 4 mps 723 mmHg 89%
    08:00 +27°C° 1.2 mm 4 mps 724 mmHg 89%
    09:00 +27°C° 7.6 mm 5 mps 723 mmHg 91%
    10:00 +26°C° 7.6 mm 5 mps 723 mmHg 92%
    11:00 +26°C° 7.6 mm 6 mps 723 mmHg 94%
    12:00 +26°C° 7.4 mm 6 mps 723 mmHg 94%
    13:00 +26°C° 7.4 mm 5 mps 722 mmHg 94%
    14:00 +26°C° 7.4 mm 5 mps 722 mmHg 94%
    15:00 +26°C° 3.1 mm 5 mps 722 mmHg 93%
    16:00 +26°C° 3.1 mm 6 mps 722 mmHg 92%
    17:00 +26°C° 3.1 mm 6 mps 722 mmHg 91%
    18:00 +26°C° 0.9 mm 6 mps 722 mmHg 91%
    19:00 +26°C° 0.9 mm 5 mps 723 mmHg 91%
    20:00 +26°C° 0.9 mm 5 mps 723 mmHg 91%
    21:00 +26°C° 1.1 mm 5 mps 723 mmHg 91%
    22:00 +26°C° 1.1 mm 4 mps 723 mmHg 92%
    23:00 +26°C° 1.1 mm 4 mps 723 mmHg 93%

    28 July, Sunday

    Time Temperature Precipitation Wind Pressure Humidity
    00:00 +26°C° 1.4 mm 4 mps 723 mmHg 93%
    01:00 +26°C° 1.4 mm 4 mps 722 mmHg 93%
    02:00 +26°C° 1.4 mm 4 mps 722 mmHg 94%
    03:00 +26°C° 1.2 mm 4 mps 722 mmHg 94%
    04:00 +26°C° 1.2 mm 4 mps 721 mmHg 94%
    05:00 +26°C° 1.2 mm 4 mps 721 mmHg 94%
    06:00 +26°C° 1 mm 4 mps 722 mmHg 94%
    07:00 +26°C° 1 mm 4 mps 722 mmHg 93%
    08:00 +26°C° 1 mm 5 mps 723 mmHg 93%
    09:00 +26°C° 0.8 mm 6 mps 723 mmHg 92%
    10:00 +26°C° 0.8 mm 7 mps 723 mmHg 92%
    11:00 +26°C° 0.8 mm 8 mps 723 mmHg 92%
    12:00 +26°C° 2.1 mm 8 mps 722 mmHg 91%
    13:00 +26°C° 2.1 mm 7 mps 722 mmHg 91%
    14:00 +26°C° 2.1 mm 7 mps 722 mmHg 91%
    15:00 +26°C° 0.7 mm 7 mps 722 mmHg 91%
    16:00 +26°C° 0.7 mm 6 mps 722 mmHg 91%
    17:00 +26°C° 0.7 mm 6 mps 722 mmHg 91%
    18:00 +26°C° 0.1 mm 5 mps 723 mmHg 91%
    19:00 +26°C° 0.1 mm 5 mps 723 mmHg 90%
    20:00 +26°C° 0.1 mm 5 mps 724 mmHg 90%
    21:00 +26°C° 0 mm 5 mps 724 mmHg 90%
    22:00 +26°C° 0 mm 5 mps 725 mmHg 90%
    23:00 +26°C° 0 mm 5 mps 725 mmHg 90%

    29 July, Monday

    Time Temperature Precipitation Wind Pressure Humidity
    00:00 +26°C° 0 mm 4 mps 725 mmHg 90%
    01:00 +25°C° 0 mm 4 mps 725 mmHg 90%
    02:00 +25°C° 0 mm 4 mps 724 mmHg 90%
    03:00 +25°C° 0.2 mm 4 mps 725 mmHg 90%
    04:00 +25°C° 0.2 mm 4 mps 725 mmHg 91%
    05:00 +25°C° 0.2 mm 4 mps 725 mmHg 91%
    06:00 +25°C° 0.2 mm 4 mps 726 mmHg 91%
    07:00 +25°C° 0.2 mm 5 mps 726 mmHg 91%
    08:00 +25°C° 0.2 mm 5 mps 726 mmHg 90%
    09:00 +25°C° 0.5 mm 5 mps 727 mmHg 91%
    10:00 +25°C° 0.5 mm 5 mps 727 mmHg 91%
    11:00 +25°C° 0.5 mm 5 mps 727 mmHg 92%
    12:00 +25°C° 1.2 mm 5 mps 727 mmHg 92%
    13:00 +25°C° 1.2 mm 4 mps 726 mmHg 92%
    14:00 +25°C° 1.2 mm 4 mps 726 mmHg 93%
    15:00 +26°C° 0.1 mm 4 mps 726 mmHg 92%
    16:00 +26°C° 0.1 mm 4 mps 726 mmHg 90%
    17:00 +27°C° 0.1 mm 3 mps 726 mmHg 89%
    18:00 +26°C° 0.1 mm 3 mps 726 mmHg 90%
    19:00 +26°C° 0.1 mm 3 mps 727 mmHg 91%
    20:00 +26°C° 0.1 mm 2 mps 727 mmHg 92%
    21:00 +26°C° 0 mm 3 mps 727 mmHg 91%
    22:00 +26°C° 0 mm 3 mps 727 mmHg 90%
    23:00 +26°C° 0 mm 3 mps 727 mmHg 89%
    Show more